STARLINK-31370, 59520

Orbit data source: Space-Track

STARLINK-31370, 59520 is a payload satellite owned by SpaceX/Seattle (US) in LEO that was launched on Wed, 17 Apr 2024 UTC via an FALCON 9 launch vehicle from the Air Force Eastern Test Range (AFETR). Payload-class satellites include a variety of spacecraft equipped with specific instruments for various scientific and technological missions. These include communications satellites like Starlink; space stations such as the ISS; scientific satellites like the Hubble; Earth observation satellites from companies like Planet Labs, Umbra, and HawkEye 360; GPS; miniature CubeSats for education and research; and military/defense satellites.

Loading next visibility...
Identifier
59520, 2024-073K
Orbit
LEO
Country
Flag of USUS
Related business
Manufacturer
SpaceX/Seattle
Mission
Operational spacecraft
Bus & Motor
STARLINK V2M, Unknown motor
Mass
730 kg wet, ~700 kg dry
Launch date (UTC)
2024-04-17 (1 year ago)
Launch vehicle
FALCON 9
Launch site
Air Force Eastern Test Range (AFETR)
Object type
Payload
Rocket body
Debris
Shape & HBR
Unknown
Radar Cross Section
Large (>1 m²)

Expand to show TLE details & history
Last TLE update: 2 days ago

TLE from 2 days ago
0 STARLINK-31370
1 59520U 24073K   25259.30612744  .00001796  00000-0  74734-4 0  9999
2 59520  43.0058 223.0425 0001786 273.1539  86.9109 15.27601426 79501
Epoch: 2025-09-16T07:20Z
TLE epoch observation values (Epoch: 2025-09-16T07:20:49.41Z)
Latitude
0.00001°
Longitude
117.33831°
Altitude
482.695 km
Speed
7.626 km/s
True Right ascension
14h 52m 10s
True Declination
0° 00' 00"
Sunlit
Object was in daylight at epoch
Visualization orbit readout
Latitude
Unknown
Longitude
Unknown
Altitude
Unknown
Speed
Unknown
Apparent Right ascension
Unknown
Apparent Declination
Unknown
Sunlit
N/A
Visualization observer readout
Local Sidereal Time
14:33:51
Azimuth
Unknown
Elevation
Unknown
Doppler factor
Unknown
Orbital elements
Apogee altitude
486.155 km
Perigee altitude
483.703 km
Semi-major axis
6,863.066 km
Eccentricity
0.00018
Inclination
43.0058°
RAAN
223.0425°
Arg. of periapsis
273.1539°
True anomaly
86.93134°
Mean anomaly
86.9109°
Eccentric anomaly
86.92112°
Mean motion
3.81738 °/min
Orbital period
94.31 mins
BSTAR
0.000074734
Loading maneuver chart data...
Computing Atmospheric mass density...
Loading historical data...
Loading historical data...
Loading historical data...
Loading historical data...
Loading historical data...
Loading historical data...
Loading historical data...

Documentation

Showing up to 5 results
|